Theta_e
281 282 283 285 288 291 294 307 320 319 318 316 315 314 313 311 310 310 308 307 307 305
280 280 281 283 286 288 292 295 311 316 315 314 312 312 310 308 307 307 306 305 303 302
281 280 281 282 283 284 288 292 296 309 313 313 310 310 308 307 306 304 304 303 301 302
281 281 280 280 281 283 285 288 291 297 302 303 304 306 305 305 303 303 302 302 300 301
279 280 280 280 280 281 282 285 287 291 297 299 299 300 301 300 300 300 299 299 298 298
278 278 279 279 280 281 281 283 284 286 290 295 296 297 298 299 298 299 299 298 296 297
275 276 278 279 280 281 281 281 282 283 285 288 290 291 293 296 297 298 299 298 297 297
274 275 276 276 278 280 280 281 282 281 282 282 286 287 289 292 295 296 297 298 298 299
273 274 274 274 275 276 278 279 280 281 280 280 282 287 288 290 292 292 293 294 295 296
272 272 273 273 273 273 274 276 277 279 280 279 280 285 287 286 289 290 289 290 292 290
270 270 271 272 271 272 272 272 274 276 278 279 280 283 285 284 283 286 287 287 288 287
269 269 269 269 270 271 271 271 272 274 276 277 278 281 283 283 282 282 284 285 286 286
267 267 267 269 268 269 270 270 271 272 274 276 275 278 282 282 282 281 281 283 283 285
266 266 267 268 268 268 268 268 269 270 272 274 274 274 279 281 280 280 280 281 281 282
Wind_Speed
18 12 13 15 14 12 12 16 14 14 13 13 14 13 13 11 12 14 14 16 13 10
16 18 17 19 16 13 15 14 19 14 14 14 13 13 12 10 12 12 13 13 13 12
17 16 17 16 19 19 17 17 19 8 12 13 12 13 13 10 11 12 10 9 13 11
19 17 16 16 18 18 19 19 17 13 5 1 5 8 9 9 10 12 11 11 13 14
19 20 17 18 19 19 19 19 18 17 9 1 3 3 6 7 8 11 10 11 9 11
18 19 20 18 19 19 19 19 19 18 16 9 3 2 2 5 7 9 9 11 11 11
17 17 18 19 18 18 17 18 19 18 18 14 15 12 6 2 3 6 7 8 10 10
15 16 17 18 19 18 18 16 16 17 15 18 15 14 13 5 3 4 7 7 9 9
14 15 15 17 18 19 19 17 16 14 15 16 12 29 28 15 4 3 4 5 6 7
14 15 15 15 17 18 18 19 18 17 17 16 15 32 31 25 8 4 2 3 3 3
13 14 14 14 15 16 15 15 15 15 16 14 13 29 31 26 14 10 4 2 2 4
11 13 14 14 14 13 13 13 14 13 14 14 13 26 28 22 13 13 12 8 6 4
10 11 12 13 13 13 12 11 11 13 12 13 13 21 24 21 10 12 10 10 10 14
9 11 11 11 11 11 12 12 11 11 11 11 11 14 21 22 11 10 9 9 9 8
Wind_Direction
340 333 323 321 316 308 304 308 208 206 200 196 199 201 192 194 196 201 205 199 200 198
343 340 333 327 325 324 322 322 288 196 198 190 187 197 187 189 192 195 198 202 193 194
347 342 339 334 333 334 332 331 323 280 211 198 188 193 189 192 190 187 196 194 195 198
349 349 345 346 338 339 339 340 335 331 326 137 167 187 188 192 182 184 187 194 193 195
348 350 352 351 346 345 346 349 346 339 345 270 186 176 192 176 177 185 184 188 182 192
352 350 350 351 349 349 352 352 354 348 3 355 29 87 193 188 185 192 191 187 187 189
346 347 345 347 352 354 354 358 2 357 9 358 26 19 4 296 202 211 207 196 201 191
341 341 344 345 348 353 0 357 357 5 1 6 18 14 359 337 283 236 225 217 215 207
342 342 346 344 345 347 350 356 358 2 7 4 3 8 9 358 315 256 230 222 217 220
342 340 343 344 344 349 345 343 352 353 357 3 3 9 11 3 350 313 255 249 222 207
339 337 337 339 343 342 344 339 340 343 347 353 2 6 11 9 1 358 347 315 263 235
334 331 333 333 338 335 338 335 334 335 340 347 350 0 11 11 5 1 2 0 351 316
324 323 323 325 328 328 329 324 325 327 332 340 344 349 5 12 4 1 355 357 0 3
320 317 313 316 323 321 325 324 322 323 325 335 347 342 354 4 5 2 348 347 347 344